Location: Newark
(52.0178°N, 4.7453°W)
Time: 10:43:43
(UTC+00:00)

Envisat - Pass Details

Date: 24 March 2019
Orbit: 764 x 766 km, 98.2° (Epoch: 23 April)

Event Time Altitude Azimuth Distance (km) Brightness Sun altitude
Rises 19:04:57 0° 176° (S) 3,223 6.1 -4.9°
Reaches altitude 10° 19:07:17 10° 181° (S) 2,301 5.4 -5.2°
Maximum altitude 19:12:16 57° 259° (W) 907 3.8 -6.0°
Drops below altitude 10° 19:17:18 10° 339° (NNW) 2,317 6.0 -6.7°
Sets 19:19:40 0° 343° (NNW) 3,247 6.7 -7.1°
